{"data":{"norad_id":51990,"intl_designator":"2022-025AL","name":"STARLINK-3657","alt_names":[],"object_type":"PAYLOAD","status":"ACTIVE","operator":null,"country":"US","launch_date":"2022-03-09","launch_site_code":"AFETR","launch_vehicle":null,"mission":null,"orbit_class":"UNKNOWN","rcs_meters":null,"size_class":null,"mass_kg":null,"dimensions":null,"purposes":["comms"],"wikipedia_slug":null,"has_3d_model":false,"image_url":null,"decayed_at":null,"tle_current":{"epoch":"2026-09-20T03:55:07.118976Z","epoch_age_seconds":84623,"freshness":"FRESH","line1":"1 51990U 22025AL  26263.16327684 -.00039137  00000+0 -11279-2 0  9997","line2":"2 51990  53.1602 214.9428 0002853 110.9973 249.1335 15.35089362250849","mean_motion":15.35089362,"eccentricity":0.0002853,"inclination_deg":53.1602,"raan_deg":214.9428,"arg_perigee_deg":110.9973,"mean_anomaly_deg":249.1335,"bstar":-0.0011279,"rev_number":25084,"period_min":93.805613904059,"perigee_km":458.70397048496,"apogee_km":462.60618524459,"semimajor_km":6838.7920778648,"source":"CELESTRAK","updated_at":"2026-09-20T09:00:39.981182Z"}}}